アトラス彗星

C/2024 A1 ( ATLAS )

English version
Home page
Updated on December 21, 2024

---------------------------------------------------------------------

・ プロフィール

発見日 2024年1月3日
発見光度 18.8等
発見者 Asteroid Terrestrial-Impact Last Alert System (ATLAS) search program

・ 写真集

・ 軌道要素

Epoch 2024 Oct. 17.0 TT = JDT 2460600.5
T 2025 June 13.70689 TT                                 Rudenko
q   3.8754982            (2000.0)            P               Q
z  -0.0003696      Peri.  353.30632     -0.38269404     +0.02738978
 +/-0.0000012      Node   112.14135     +0.88713227     -0.26819445
e   1.0014323      Incl.   94.44646     +0.25795661     +0.96297536
From 390 observations 2024 Jan. 3-Nov. 13, mean residual 0".5.

・ 星図

・ 光度変化

        m1 = 8.5 + 5 logΔ + 7.5 log r

---------------------------------------------------------------------

軌道要素はM.P.E.C. 2024-V192に掲載されたものです。
星図はステラナビゲータ Ver.11 (アストロアーツ) で作成したものです。
光度グラフはComet for Windowsで作成したものです。

---------------------------------------------------------------------

Copyright(C) Seiichi Yoshida (comet@aerith.net). All rights reserved.